CW2840 Weather Reports


time (UTC)temp
C
wind
direction
speed
KPH
gust
KPH
rain 1hr
cm
rain 24hr
cm
rain mn
cm
humidity
%
barometer
mb
20240418164845 28 178 9.7 25.7 0.00 0.00 0.00 68 1015.0
20240418163345 28 199 9.7 22.5 0.00 0.00 0.00 70 1015.0
20240418161844 28 178 9.7 25.7 0.00 0.00 0.00 70 1015.1
20240418160344 27 131 9.7 25.7 0.00 0.00 0.00 72 1015.0
20240418155548 27 200 6.4 22.5 0.00 0.00 0.00 77 1014.9
20240418153343 26 180 12.9 29.0 0.00 0.00 0.00 77 1014.8
20240418151843 26 202 9.7 22.5 0.00 0.00 0.00 78 1014.8
20240418151038 25 138 11.3 22.5 0.00 0.00 0.00 80 1015.2
20240418144843 25 210 8.0 14.5 0.00 0.00 0.00 82 1014.8
20240418143342 25 179 6.4 11.3 0.00 0.00 0.00 83 1014.7
20240418141842 24 176 4.8 17.7 0.00 0.00 0.00 85 1014.7
20240418140342 24 200 8.0 14.5 0.00 0.00 0.00 85 1014.6
20240418134841 24 209 4.8 8.0 0.00 0.00 0.00 86 1014.8
20240418134033 24 185 8.0 14.5 0.00 0.00 0.00 86 1014.2
20240418131841 23 203 4.8 11.3 0.00 0.00 0.00 87 1014.3
20240418130340 23 134 4.8 8.0 0.00 0.00 0.00 87 1014.2
20240418124838 23 140 4.8 8.0 0.00 0.00 0.00 87 1013.9
20240418123340 23 200 3.2 8.0 0.00 0.00 0.00 88 1014.0
20240418121839 23 206 1.6 8.0 0.00 0.00 0.00 87 1014.2
20240418121043 23 207 1.6 4.8 0.00 0.00 0.00 87 1013.9
20240418114838 23 207 1.6 4.8 0.00 0.00 0.00 87 1013.7
20240418113339 23 207 3.2 8.0 0.00 0.00 0.00 87 1013.7
20240418111838 23 188 3.2 8.0 0.00 0.00 0.00 87 1013.7
20240418110337 23 162 3.2 8.0 0.00 0.00 0.00 87 1013.7
20240418104838 23 216 3.2 11.3 0.00 0.00 0.00 87 1013.5
20240418104035 23 200 4.8 8.0 0.00 0.00 0.00 87 1013.6
20240418101836 23 219 4.8 11.3 0.00 0.00 0.00 87 1013.5
20240418100335 23 144 0.0 8.0 0.00 0.00 0.00 87 1013.1
20240418095535 23 116 3.2 8.0 0.00 0.00 0.00 88 1013.1
20240418093335 23 175 3.2 8.0 0.00 0.00 0.00 88 1013.3
20240418091835 23 179 3.2 11.3 0.00 0.00 0.00 88 1013.1
20240418090334 23 147 1.6 11.3 0.00 0.00 0.00 89 1013.0
20240418084834 23 209 4.8 14.5 0.00 0.00 0.00 89 1012.8
20240418083333 23 178 6.4 14.5 0.00 0.00 0.00 89 1012.5
20240418081833 23 203 4.8 11.3 0.00 0.00 0.00 89 1012.6
20240418080334 23 149 4.8 14.5 0.00 0.00 0.00 89 1012.4
20240418074833 23 128 6.4 14.5 0.00 0.00 0.00 89 1012.4
20240418073332 23 83 6.4 11.3 0.00 0.00 0.00 89 1012.8
20240418072546 22 135 3.2 8.0 0.00 0.00 0.00 89 1013.0
20240418070333 22 131 1.6 11.3 0.00 0.00 0.00 89 1013.2
20240418064831 22 131 4.8 11.3 0.00 0.00 0.00 89 1013.4
20240418063330 22 138 1.6 4.8 0.00 0.00 0.00 88 1013.8
20240418061830 23 138 1.6 4.8 0.00 0.00 0.00 88 1013.9
20240418060331 23 138 1.6 8.0 0.00 0.00 0.00 88 1014.3
20240418054829 23 140 0.0 11.3 0.00 0.00 0.00 88 1014.7
20240418053331 22 154 4.8 4.8 0.00 0.00 0.00 88 1014.8
20240418051830 22 155 0.0 4.8 0.00 0.00 0.00 88 1015.0
20240418050328 22 151 3.2 8.0 0.00 0.00 0.00 87 1014.9
20240418044830 23 151 1.6 8.0 0.00 0.00 0.00 87 1015.0
20240418043329 23 155 3.2 4.8 0.00 0.00 0.00 87 1015.0
20240418041827 23 152 0.0 4.8 0.00 0.00 0.00 86 1015.2
20240418040330 23 152 3.2 4.8 0.00 0.00 0.00 86 1015.1
20240418034828 23 152 0.0 8.0 0.00 0.00 0.00 85 1015.1
20240418033328 23 159 1.6 4.8 0.00 0.00 0.00 85 1015.2
20240418031827 23 203 3.2 8.0 0.00 0.00 0.00 84 1015.1
20240418031028 23 192 4.8 8.0 0.00 0.00 0.00 84 1014.9
20240418024835 23 173 3.2 8.0 0.00 0.00 0.00 83 1014.4
20240418023327 23 131 4.8 11.3 0.00 0.00 0.00 83 1014.3
20240418021827 23 162 0.0 4.8 0.00 0.00 0.00 82 1014.3
20240418020331 23 162 6.4 11.3 0.00 0.00 0.00 82 1014.2
20240418015522 23 134 3.2 17.7 0.00 0.00 0.00 81 1014.1
20240418013325 23 138 4.8 14.5 0.00 0.00 0.00 81 1013.9
20240418011826 23 123 6.4 14.5 0.00 0.00 0.00 80 1013.9
20240418010325 24 102 3.2 8.0 0.00 0.00 0.00 79 1013.8
20240418004826 24 90 6.4 11.3 0.00 0.00 0.00 78 1013.7
20240418003325 24 141 3.2 20.9 0.00 0.00 0.00 77 1013.3
20240418001823 25 131 6.4 11.3 0.00 0.00 0.00 75 1012.9
20240418000323 25 120 6.4 14.5 0.00 0.00 0.00 74 1012.8
20240417234824 25 135 6.4 14.5 0.00 0.00 0.00 73 1012.9
20240417233329 25 141 4.8 14.5 0.00 0.00 0.00 72 1012.9
20240417231822 26 130 4.8 14.5 0.00 0.00 0.00 71 1012.9
20240417230322 26 155 6.4 8.0 0.00 0.00 0.00 70 1012.9
20240417224821 26 154 4.8 11.3 0.00 0.00 0.00 71 1012.8
20240417223325 26 113 6.4 14.5 0.00 0.00 0.00 70 1012.9
20240417221821 27 183 8.0 20.9 0.00 0.00 0.00 69 1013.2
20240417220321 27 161 6.4 20.9 0.00 0.00 0.00 67 1013.3
20240417214822 27 182 8.0 20.9 0.00 0.00 0.00 66 1013.4
20240417213325 27 125 4.8 25.7 0.00 0.00 0.00 67 1013.6
20240417211822 27 137 8.0 17.7 0.00 0.00 0.00 66 1013.8
20240417210325 27 233 9.7 17.7 0.00 0.00 0.00 68 1013.9
20240417204819 27 148 6.4 14.5 0.00 0.00 0.00 68 1014.3
20240417203318 27 111 8.0 14.5 0.00 0.00 0.00 68 1014.5
20240417201818 27 164 8.0 20.9 0.00 0.00 0.00 69 1014.5
20240417200318 27 161 4.8 14.5 0.00 0.00 0.00 70 1014.2
20240417194818 26 111 6.4 14.5 0.00 0.00 0.00 72 1014.9
20240417193317 27 235 4.8 22.5 0.00 0.00 0.00 71 1015.2
20240417192512 27 87 6.4 22.5 0.00 0.00 0.00 71 1015.1
20240417190317 27 124 8.0 14.5 0.00 0.00 0.00 71 1014.8
20240417184816 27 120 9.7 17.7 0.00 0.00 0.00 72 1015.1
20240417183322 26 114 4.8 11.3 0.00 0.00 0.00 73 1015.3
20240417181810 26 140 8.0 14.5 0.00 0.00 0.00 73 1015.2
20240417181013 26 135 9.7 17.7 0.00 0.00 0.00 74 1015.3
20240417174812 26 142 4.8 14.5 0.00 0.00 0.00 75 1015.6
20240417173312 26 116 4.8 17.7 0.00 0.00 0.00 75 1015.4
20240417171810 26 199 6.4 17.7 0.00 0.00 0.00 75 1015.2
20240417170309 26 173 8.0 17.7 0.00 0.00 0.00 76 1015.2